When you browse on this site, cookies collect data to enhance your experience and personalize the content and advertising you see.
Visit our Privacy Policy to learn more. By continuing to use the site, you agree to this use of cookies and data.
  • In Hungary
  • List of Countries
  • For 7 days
  • Water Temperature
  • Satellite Maps
  • Weather Map
  • News
  • Weather Widgets
  • user-avatar
    Login

    Hourly Weather Girvan

    Today, 14 December, Friday

    Time Temperature Precipitation Wind Pressure Humidity
    00:00 +6°C° 0 mm 2 mps 726 mmHg 32%
    01:00 +5°C° 0 mm 2 mps 726 mmHg 32%
    02:00 +5°C° 0 mm 2 mps 726 mmHg 32%
    03:00 +5°C° 0 mm 2 mps 727 mmHg 31%
    04:00 +5°C° 0 mm 2 mps 727 mmHg 31%
    05:00 +5°C° 0 mm 2 mps 726 mmHg 30%
    06:00 +4°C° 0 mm 2 mps 726 mmHg 30%
    07:00 +4°C° 0 mm 2 mps 727 mmHg 30%
    08:00 +4°C° 0 mm 2 mps 727 mmHg 30%
    09:00 +6°C° 0 mm 2 mps 726 mmHg 26%
    10:00 +8°C° 0 mm 2 mps 726 mmHg 23%
    11:00 +11°C° 0 mm 1 mps 726 mmHg 20%
    12:00 +12°C° 0 mm 1 mps 726 mmHg 19%
    13:00 +12°C° 0 mm 1 mps 726 mmHg 18%
    14:00 +13°C° 0 mm 1 mps 725 mmHg 17%
    15:00 +12°C° 0 mm 1 mps 726 mmHg 20%
    16:00 +11°C° 0 mm 1 mps 726 mmHg 23%
    17:00 +9°C° 0 mm 1 mps 727 mmHg 25%
    18:00 +9°C° 0 mm 1 mps 727 mmHg 26%
    19:00 +9°C° 0 mm 1 mps 727 mmHg 27%
    20:00 +8°C° 0 mm 1 mps 727 mmHg 27%
    21:00 +7°C° 0 mm 2 mps 727 mmHg 28%
    22:00 +7°C° 0 mm 2 mps 727 mmHg 28%
    23:00 +7°C° 0 mm 2 mps 727 mmHg 28%

    Tomorrow, 15 December, Saturday

    Time Temperature Precipitation Wind Pressure Humidity
    00:00 +8°C° 0 mm 1 mps 727 mmHg 29%
    01:00 +7°C° 0 mm 1 mps 727 mmHg 29%
    02:00 +7°C° 0 mm 1 mps 727 mmHg 30%
    03:00 +7°C° 0 mm 1 mps 727 mmHg 30%
    04:00 +7°C° 0 mm 1 mps 727 mmHg 31%
    05:00 +7°C° 0 mm 1 mps 727 mmHg 31%
    06:00 +7°C° 0 mm 1 mps 727 mmHg 32%
    07:00 +7°C° 0 mm 1 mps 727 mmHg 32%
    08:00 +6°C° 0 mm 1 mps 727 mmHg 32%
    09:00 +8°C° 0 mm 1 mps 727 mmHg 29%
    10:00 +10°C° 0 mm 1 mps 726 mmHg 26%
    11:00 +12°C° 0 mm 1 mps 726 mmHg 23%
    12:00 +12°C° 0 mm 1 mps 726 mmHg 22%
    13:00 +13°C° 0 mm 1 mps 725 mmHg 21%
    14:00 +14°C° 0 mm 1 mps 725 mmHg 20%
    15:00 +12°C° 0 mm 1 mps 725 mmHg 23%
    16:00 +11°C° 0 mm 1 mps 725 mmHg 25%
    17:00 +10°C° 0 mm 1 mps 725 mmHg 28%
    18:00 +10°C° 0 mm 1 mps 725 mmHg 29%
    19:00 +9°C° 0 mm 1 mps 725 mmHg 29%
    20:00 +9°C° 0 mm 1 mps 725 mmHg 30%
    21:00 +9°C° 0 mm 1 mps 725 mmHg 30%
    22:00 +8°C° 0 mm 1 mps 725 mmHg 31%
    23:00 +8°C° 0 mm 1 mps 725 mmHg 31%

    Day after tomorrow, 16 December, Sunday

    Time Temperature Precipitation Wind Pressure Humidity
    00:00 +8°C° 0 mm 1 mps 725 mmHg 32%
    01:00 +7°C° 0 mm 1 mps 725 mmHg 32%
    02:00 +7°C° 0 mm 1 mps 725 mmHg 33%
    03:00 +7°C° 0 mm 1 mps 726 mmHg 34%
    04:00 +7°C° 0 mm 1 mps 726 mmHg 34%
    05:00 +7°C° 0 mm 1 mps 726 mmHg 34%
    06:00 +6°C° 0 mm 1 mps 727 mmHg 35%
    07:00 +6°C° 0 mm 1 mps 728 mmHg 36%
    08:00 +6°C° 0 mm 1 mps 728 mmHg 37%
    09:00 +7°C° 0 mm 1 mps 728 mmHg 36%
    10:00 +7°C° 0 mm 2 mps 728 mmHg 34%
    11:00 +9°C° 0 mm 2 mps 728 mmHg 33%
    12:00 +9°C° 0 mm 2 mps 728 mmHg 33%
    13:00 +9°C° 0 mm 2 mps 728 mmHg 33%
    14:00 +11°C° 0 mm 1 mps 728 mmHg 34%
    15:00 +10°C° 0 mm 1 mps 728 mmHg 37%
    16:00 +9°C° 0 mm 1 mps 729 mmHg 41%
    17:00 +8°C° 0 mm 1 mps 729 mmHg 45%
    18:00 +8°C° 0 mm 1 mps 729 mmHg 45%
    19:00 +7°C° 0 mm 1 mps 729 mmHg 45%
    20:00 +7°C° 0 mm 1 mps 729 mmHg 46%
    21:00 +6°C° 0 mm 2 mps 729 mmHg 45%
    22:00 +6°C° 0 mm 2 mps 728 mmHg 44%
    23:00 +5°C° 0 mm 2 mps 728 mmHg 44%

    17 December, Monday

    Time Temperature Precipitation Wind Pressure Humidity
    00:00 +5°C° 0 mm 2 mps 727 mmHg 44%
    01:00 +6°C° 0 mm 1 mps 727 mmHg 44%
    02:00 +6°C° 0 mm 1 mps 727 mmHg 44%
    03:00 +6°C° 0 mm 1 mps 726 mmHg 44%
    04:00 +6°C° 0 mm 1 mps 726 mmHg 44%
    05:00 +6°C° 0 mm 1 mps 726 mmHg 44%
    06:00 +6°C° 0 mm 1 mps 726 mmHg 43%
    07:00 +6°C° 0 mm 1 mps 726 mmHg 43%
    08:00 +6°C° 0 mm 1 mps 726 mmHg 43%
    09:00 +7°C° 0 mm 1 mps 726 mmHg 40%
    10:00 +8°C° 0 mm 1 mps 725 mmHg 38%
    11:00 +9°C° 0 mm 1 mps 725 mmHg 35%
    12:00 +10°C° 0 mm 1 mps 725 mmHg 34%
    13:00 +10°C° 0 mm 1 mps 725 mmHg 34%
    14:00 +11°C° 0 mm 1 mps 724 mmHg 33%
    15:00 +10°C° 0 mm 1 mps 725 mmHg 35%
    16:00 +10°C° 0 mm 1 mps 725 mmHg 38%
    17:00 +9°C° 0 mm 1 mps 725 mmHg 41%
    18:00 +9°C° 0 mm 1 mps 725 mmHg 42%
    19:00 +9°C° 0 mm 1 mps 726 mmHg 43%
    20:00 +8°C° 0 mm 1 mps 726 mmHg 44%
    21:00 +8°C° 0.1 mm 1 mps 726 mmHg 45%
    22:00 +8°C° 0.1 mm 1 mps 726 mmHg 47%
    23:00 +8°C° 0.1 mm 1 mps 726 mmHg 48%

    18 December, Tuesday

    Time Temperature Precipitation Wind Pressure Humidity
    00:00 +8°C° 0.1 mm 1 mps 725 mmHg 50%
    01:00 +8°C° 0.1 mm 1 mps 725 mmHg 51%
    02:00 +8°C° 0.1 mm 1 mps 725 mmHg 53%
    03:00 +8°C° 0.1 mm 1 mps 725 mmHg 54%
    04:00 +7°C° 0.1 mm 1 mps 725 mmHg 56%
    05:00 +7°C° 0.1 mm 1 mps 725 mmHg 57%
    06:00 +7°C° 0.1 mm 1 mps 725 mmHg 59%
    07:00 +7°C° 0.1 mm 1 mps 724 mmHg 60%
    08:00 +7°C° 0.1 mm 1 mps 724 mmHg 61%
    09:00 +8°C° 0 mm 1 mps 724 mmHg 58%
    10:00 +9°C° 0 mm 1 mps 724 mmHg 54%
    11:00 +10°C° 0 mm 1 mps 724 mmHg 51%
    12:00 +10°C° 0 mm 1 mps 724 mmHg 50%
    13:00 +10°C° 0 mm 1 mps 723 mmHg 49%
    14:00 +11°C° 0 mm 1 mps 723 mmHg 48%
    15:00 +10°C° 0 mm 1 mps 723 mmHg 50%
    16:00 +10°C° 0 mm 1 mps 723 mmHg 53%
    17:00 +9°C° 0 mm 1 mps 723 mmHg 56%
    18:00 +9°C° 0 mm 1 mps 723 mmHg 56%
    19:00 +9°C° 0 mm 1 mps 723 mmHg 56%
    20:00 +7°C° 0 mm 2 mps 723 mmHg 56%
    21:00 +8°C° 0 mm 1 mps 723 mmHg 56%
    22:00 +8°C° 0 mm 1 mps 723 mmHg 56%
    23:00 +8°C° 0 mm 1 mps 722 mmHg 55%

    19 December, Wednesday

    Time Temperature Precipitation Wind Pressure Humidity
    00:00 +8°C° 0 mm 1 mps 722 mmHg 55%
    01:00 +8°C° 0 mm 1 mps 722 mmHg 55%
    02:00 +8°C° 0 mm 1 mps 721 mmHg 56%
    03:00 +8°C° 0 mm 1 mps 721 mmHg 56%
    04:00 +8°C° 0 mm 1 mps 721 mmHg 57%
    05:00 +8°C° 0 mm 1 mps 720 mmHg 57%
    06:00 +8°C° 0 mm 1 mps 720 mmHg 57%
    07:00 +8°C° 0 mm 1 mps 720 mmHg 57%
    08:00 +8°C° 0 mm 1 mps 720 mmHg 58%
    09:00 +9°C° 0 mm 1 mps 720 mmHg 55%
    10:00 +10°C° 0 mm 1 mps 720 mmHg 52%
    11:00 +11°C° 0 mm 1 mps 720 mmHg 49%
    12:00 +11°C° 0 mm 1 mps 720 mmHg 47%
    13:00 +11°C° 0 mm 1 mps 720 mmHg 46%
    14:00 +12°C° 0 mm 1 mps 720 mmHg 45%
    15:00 +11°C° 0 mm 1 mps 720 mmHg 48%
    16:00 +11°C° 0 mm 1 mps 721 mmHg 51%
    17:00 +10°C° 0 mm 1 mps 721 mmHg 54%
    18:00 +9°C° 0 mm 0 mps 722 mmHg 55%
    19:00 +9°C° 0 mm 0 mps 722 mmHg 56%
    20:00 +8°C° 0 mm 0 mps 722 mmHg 56%
    21:00 +8°C° 0 mm 0 mps 723 mmHg 57%
    22:00 +8°C° 0 mm 0 mps 723 mmHg 58%
    23:00 +9°C° 0 mm 1 mps 723 mmHg 59%
    Show more